Overview Statistics Trail Chart Weather Telemetry Raw packets
 

This is the latest recevied weather packets stored in our database for station/object S51UL-6. If no packets are shown the sender has not sent any weather packets the latest 10 day(s).

<< 75 76 77 78 79 80 81 >>
Time Temp. Humidity Pressure Rain* Wind** Luminosity Snow
1787926059 30° C 60% 1013.6 hPa 0 mm - - -
1787925759 30.56° C 59% 1013.7 hPa 0 mm - - -
1787925161 30.56° C 58% 1013.7 hPa 0 mm - - -
1787924559 31.11° C 58% 1013.9 hPa 0 mm - - -
1787924259 31.11° C 58% 1014 hPa 0 mm - - -
1787923959 31.11° C 57% 1014 hPa 0 mm - - -
1787923659 31.67° C 56% 1014 hPa 0 mm - - -
1787923360 31.67° C 56% 1014.3 hPa 0 mm - - -
1787923059 32.22° C 55% 1014 hPa 0 mm - - -
1787921860 32.22° C 54% 1014.3 hPa 0 mm - - -
1787921560 32.78° C 54% 1014.4 hPa 0 mm - - -
1787921259 32.78° C 53% 1014.4 hPa 0 mm - - -
1787920959 33.33° C 53% 1014.5 hPa 0 mm - - -
1787920660 33.33° C 54% 1014.4 hPa 0 mm - - -
1787920360 33.33° C 54% 1014.5 hPa 0 mm - - -
1787920060 33.33° C 55% 1014.4 hPa 0 mm - - -
1787919160 31.67° C 57% 1014.7 hPa 0 mm - - -
1787918860 31.11° C 58% 1014.5 hPa 0 mm - - -
1787917360 31.11° C 56% 1015 hPa 0 mm - - -
1787917061 31.11° C 55% 1014.9 hPa 0 mm - - -
1787916760 31.11° C 54% 1014.9 hPa 0 mm - - -
1787916461 31.67° C 52% 1014.9 hPa 0 mm - - -
1787915861 32.22° C 54% 1015.2 hPa 0 mm - - -
1787915561 32.22° C 52% 1015.3 hPa 0 mm - - -
1787915261 32.22° C 53% 1015 hPa 0 mm - - -

* Rain latest hour (hover to see other rain measurements)
** Current wind speed in m/s (hover to see current wind gust speed)